• In Hungary
  • List of Countries
  • For 7 days
  • Water Temperature
  • Satellite Maps
  • Weather Map
  • News
  • Weather Widgets
  • user-avatar
    Login

    Hourly Weather Pekanbaru

    Today, 20 November, Monday

    Time Temperature Precipitation Wind Pressure Humidity
    00:00 +24°C° 0 mm 0 mps 756 mmHg 95%
    01:00 +24°C° 0 mm 0 mps 756 mmHg 95%
    02:00 +24°C° 0 mm 0 mps 756 mmHg 96%
    03:00 +23°C° 0 mm 0 mps 755 mmHg 96%
    04:00 +23°C° 0 mm 0 mps 755 mmHg 96%
    05:00 +24°C° 0 mm 0 mps 756 mmHg 95%
    06:00 +24°C° 0 mm 0 mps 756 mmHg 95%
    07:00 +24°C° 0 mm 0 mps 756 mmHg 93%
    08:00 +26°C° 0.5 mm 0 mps 756 mmHg 88%
    09:00 +29°C° 0.5 mm 1 mps 756 mmHg 83%
    10:00 +31°C° 0.5 mm 1 mps 756 mmHg 77%
    11:00 +31°C° 1 mm 1 mps 756 mmHg 77%
    12:00 +31°C° 1 mm 1 mps 756 mmHg 76%
    13:00 +31°C° 0 mm 1 mps 755 mmHg 74%
    14:00 +31°C° 0.4 mm 1 mps 755 mmHg 76%
    15:00 +31°C° 0.4 mm 1 mps 754 mmHg 78%
    16:00 +30°C° 0.4 mm 1 mps 754 mmHg 80%
    17:00 +29°C° 0.6 mm 1 mps 755 mmHg 85%
    18:00 +26°C° 0.6 mm 0 mps 755 mmHg 89%
    19:00 +25°C° 0 mm 0 mps 755 mmHg 94%
    20:00 +25°C° 0.1 mm 0 mps 755 mmHg 94%
    21:00 +24°C° 0.1 mm 0 mps 756 mmHg 94%
    22:00 +24°C° 0.1 mm 0 mps 756 mmHg 93%
    23:00 +24°C° 0 mm 0 mps 756 mmHg 94%

    Tomorrow, 21 November, Tuesday

    Time Temperature Precipitation Wind Pressure Humidity
    00:00 +24°C° 0 mm 0 mps 756 mmHg 94%
    01:00 +24°C° 0 mm 0 mps 756 mmHg 95%
    02:00 +24°C° 0 mm 0 mps 755 mmHg 95%
    03:00 +23°C° 0 mm 0 mps 755 mmHg 95%
    04:00 +23°C° 0 mm 0 mps 755 mmHg 96%
    05:00 +24°C° 0 mm 0 mps 755 mmHg 95%
    06:00 +24°C° 0 mm 0 mps 755 mmHg 94%
    07:00 +24°C° 0 mm 0 mps 756 mmHg 93%
    08:00 +26°C° 0.3 mm 0 mps 756 mmHg 86%
    09:00 +28°C° 0.3 mm 0 mps 756 mmHg 79%
    10:00 +30°C° 0.3 mm 0 mps 756 mmHg 72%
    11:00 +31°C° 0.2 mm 0 mps 756 mmHg 65%
    12:00 +32°C° 0.2 mm 0 mps 755 mmHg 59%
    13:00 +35°C° 0.2 mm 1 mps 754 mmHg 52%
    14:00 +35°C° 0.2 mm 1 mps 754 mmHg 54%
    15:00 +33°C° 0.2 mm 0 mps 753 mmHg 56%
    16:00 +32°C° 0.2 mm 0 mps 752 mmHg 57%
    17:00 +30°C° 0.7 mm 0 mps 753 mmHg 66%
    18:00 +30°C° 0.7 mm 1 mps 753 mmHg 75%
    19:00 +28°C° 0.7 mm 1 mps 754 mmHg 85%
    20:00 +26°C° 1.3 mm 0 mps 754 mmHg 87%
    21:00 +25°C° 1.3 mm 0 mps 755 mmHg 90%
    22:00 +25°C° 1.3 mm 0 mps 755 mmHg 93%
    23:00 +24°C° 2.7 mm 0 mps 755 mmHg 94%

    Day after tomorrow, 22 November, Wednesday

    Time Temperature Precipitation Wind Pressure Humidity
    00:00 +24°C° 2.7 mm 0 mps 755 mmHg 95%
    01:00 +24°C° 2.7 mm 0 mps 755 mmHg 97%
    02:00 +24°C° 2 mm 0 mps 754 mmHg 97%
    03:00 +24°C° 2 mm 0 mps 754 mmHg 96%
    04:00 +24°C° 2 mm 0 mps 754 mmHg 96%
    05:00 +24°C° 0.3 mm 0 mps 754 mmHg 96%
    06:00 +24°C° 0.3 mm 0 mps 754 mmHg 95%
    07:00 +24°C° 0.3 mm 0 mps 755 mmHg 95%
    08:00 +26°C° 0.1 mm 0 mps 755 mmHg 88%
    09:00 +28°C° 0.1 mm 0 mps 755 mmHg 80%
    10:00 +30°C° 0.1 mm 0 mps 755 mmHg 73%
    11:00 +31°C° 0 mm 0 mps 754 mmHg 68%
    12:00 +33°C° 0 mm 1 mps 754 mmHg 63%
    13:00 +34°C° 0 mm 1 mps 753 mmHg 58%
    14:00 +34°C° 0.7 mm 1 mps 753 mmHg 64%
    15:00 +33°C° 0.7 mm 1 mps 752 mmHg 70%
    16:00 +32°C° 0.7 mm 1 mps 751 mmHg 76%
    17:00 +31°C° 0.7 mm 1 mps 752 mmHg 82%
    18:00 +29°C° 0.7 mm 1 mps 753 mmHg 87%
    19:00 +26°C° 0.7 mm 0 mps 753 mmHg 92%
    20:00 +25°C° 2.1 mm 0 mps 754 mmHg 93%
    21:00 +25°C° 2.1 mm 0 mps 755 mmHg 94%
    22:00 +25°C° 2.1 mm 0 mps 755 mmHg 94%
    23:00 +25°C° 1.5 mm 0 mps 755 mmHg 95%

    23 November, Thursday

    Time Temperature Precipitation Wind Pressure Humidity
    00:00 +24°C° 1.5 mm 0 mps 755 mmHg 95%
    01:00 +24°C° 1.5 mm 0 mps 754 mmHg 95%
    02:00 +24°C° 0.2 mm 0 mps 754 mmHg 96%
    03:00 +24°C° 0.2 mm 0 mps 754 mmHg 97%
    04:00 +24°C° 0.2 mm 0 mps 753 mmHg 97%
    05:00 +24°C° 0.2 mm 0 mps 754 mmHg 97%
    06:00 +24°C° 0.2 mm 0 mps 754 mmHg 96%
    07:00 +24°C° 0.2 mm 0 mps 755 mmHg 95%
    08:00 +26°C° 0.6 mm 0 mps 755 mmHg 89%
    09:00 +30°C° 0.6 mm 1 mps 755 mmHg 83%
    10:00 +31°C° 0.6 mm 1 mps 755 mmHg 77%
    11:00 +32°C° 0.5 mm 1 mps 754 mmHg 71%
    12:00 +34°C° 0.5 mm 1 mps 754 mmHg 65%
    13:00 +35°C° 0.5 mm 1 mps 753 mmHg 59%
    14:00 +34°C° 0.5 mm 1 mps 752 mmHg 64%
    15:00 +33°C° 0.5 mm 1 mps 752 mmHg 69%
    16:00 +32°C° 0.5 mm 1 mps 751 mmHg 74%
    17:00 +31°C° 1.2 mm 1 mps 752 mmHg 80%
    18:00 +29°C° 1.2 mm 1 mps 753 mmHg 87%
    19:00 +27°C° 1.2 mm 1 mps 754 mmHg 93%
    20:00 +25°C° 1.2 mm 0 mps 754 mmHg 93%
    21:00 +25°C° 1.2 mm 0 mps 755 mmHg 94%
    22:00 +25°C° 1.2 mm 0 mps 756 mmHg 94%
    23:00 +25°C° 1.5 mm 0 mps 755 mmHg 94%

    24 November, Friday

    Time Temperature Precipitation Wind Pressure Humidity
    00:00 +24°C° 1.5 mm 0 mps 755 mmHg 95%
    01:00 +24°C° 1.5 mm 0 mps 755 mmHg 95%
    02:00 +24°C° 1.2 mm 0 mps 754 mmHg 95%
    03:00 +26°C° 1.2 mm 1 mps 754 mmHg 96%
    04:00 +26°C° 1.2 mm 1 mps 754 mmHg 96%
    05:00 +24°C° 0.2 mm 0 mps 754 mmHg 96%
    06:00 +24°C° 0.2 mm 0 mps 755 mmHg 95%
    07:00 +24°C° 0.2 mm 0 mps 755 mmHg 95%
    08:00 +26°C° 0.1 mm 0 mps 755 mmHg 88%
    09:00 +29°C° 0.1 mm 1 mps 756 mmHg 82%
    10:00 +31°C° 0.1 mm 1 mps 756 mmHg 75%
    11:00 +31°C° 0.7 mm 1 mps 755 mmHg 74%
    12:00 +32°C° 0.7 mm 1 mps 754 mmHg 72%
    13:00 +32°C° 0.7 mm 1 mps 753 mmHg 70%
    14:00 +32°C° 1.1 mm 1 mps 753 mmHg 76%
    15:00 +31°C° 1.1 mm 1 mps 753 mmHg 82%
    16:00 +30°C° 1.1 mm 1 mps 752 mmHg 88%
    17:00 +29°C° 0.9 mm 1 mps 753 mmHg 90%
    18:00 +28°C° 0.9 mm 1 mps 754 mmHg 92%
    19:00 +27°C° 0.9 mm 1 mps 755 mmHg 95%
    20:00 +26°C° 0.1 mm 1 mps 755 mmHg 95%
    21:00 +24°C° 0.1 mm 0 mps 756 mmHg 95%
    22:00 +24°C° 0.1 mm 0 mps 756 mmHg 96%
    23:00 +24°C° 0.2 mm 0 mps 756 mmHg 96%

    25 November, Saturday

    Time Temperature Precipitation Wind Pressure Humidity
    00:00 +24°C° 0.2 mm 0 mps 755 mmHg 96%
    01:00 +24°C° 0.2 mm 0 mps 755 mmHg 97%
    02:00 +24°C° 0.1 mm 0 mps 754 mmHg 97%
    03:00 +23°C° 0.1 mm 0 mps 754 mmHg 97%
    04:00 +23°C° 0.1 mm 0 mps 754 mmHg 97%
    05:00 +23°C° 0.1 mm 0 mps 755 mmHg 97%
    06:00 +24°C° 0.1 mm 0 mps 755 mmHg 97%
    07:00 +24°C° 0.1 mm 0 mps 756 mmHg 96%
    08:00 +25°C° 0.2 mm 0 mps 756 mmHg 93%
    09:00 +26°C° 0.2 mm 0 mps 756 mmHg 90%
    10:00 +29°C° 0.2 mm 1 mps 756 mmHg 86%
    11:00 +30°C° 0.1 mm 1 mps 756 mmHg 80%
    12:00 +31°C° 0.1 mm 1 mps 755 mmHg 73%
    13:00 +32°C° 0.1 mm 1 mps 754 mmHg 66%
    14:00 +32°C° 0.2 mm 1 mps 754 mmHg 68%
    15:00 +32°C° 0.2 mm 1 mps 753 mmHg 69%
    16:00 +32°C° 0.2 mm 1 mps 753 mmHg 71%
    17:00 +30°C° 0.1 mm 1 mps 754 mmHg 77%
    18:00 +27°C° 0.1 mm 0 mps 754 mmHg 82%
    19:00 +26°C° 0.1 mm 0 mps 755 mmHg 88%
    20:00 +25°C° 0.1 mm 0 mps 755 mmHg 89%
    21:00 +25°C° 0.1 mm 0 mps 756 mmHg 91%
    22:00 +25°C° 0.1 mm 0 mps 756 mmHg 92%
    23:00 +24°C° 0.7 mm 0 mps 756 mmHg 94%
    Show more